Flag for Aruba Weather past 2 weeks in Oranjestad, Aruba

Now
90 °F

Passing clouds.


Feels Like: 103 °F
Forecast: 82 / 91 °F
Wind: 21 mph from East

Location: Queen Beatrix Airport - Aruba

Current Time: Sep 1, 2015 at 12:40:01 PM

Latest Report: Sep 1, 2015 at 12:00 PM


Visibility: N/A

Pressure: 29.92 "Hg

Humidity: 67%

Dew point: 77 °F

Location of OranjestadLocation

Historic Weather in Oranjestad — Graph

°F

Oranjestad temperature yesterday

Maximum temperature yesterday: 91 °F (at 12:00 PM)
Minimum temperature yesterday: 48 °F (at 9:00 PM)
Average temperature yesterday: 84 °F

Past Weeks' High & Low Weather Summary

 TemperatureHumidityPressure
High95 °F (Aug 28, 1:00 PM)100% (Aug 25, 10:00 PM)29.95 "Hg (Aug 25, 10:00 PM)
Low48 °F (Aug 31, 9:00 PM)50% (Aug 28, 1:00 PM)29.74 "Hg (Aug 24, 4:00 PM)
Average86 °F73%29.85 "Hg
* Reported Aug 17 11:00 AM — Sep 1 11:00 AM, Oranjestad, Weather by CustomWeather, © 2015

Note: Actual official high and low records may vary slightly from our data, if they occured in-between our weather recording intervals... More about our weather records

Advertising

Oranjestad weather history for previous 24 hours

 ConditionsComfort  
Time TempWeatherWind HumidityBarometerVisibility
11:00 AM
Tue, Sep 1
88 °FRain showers. Scattered clouds.21 mph70%29.92 "Hg5 mi
10:00 AM90 °FScattered clouds.18 mph67%29.95 "HgN/A
9:00 AM88 °FScattered clouds.18 mph70%29.92 "HgN/A
8:00 AM86 °FScattered clouds.18 mph75%29.92 "HgN/A
7:00 AM82 °FPassing clouds.15 mph84%29.89 "HgN/A
6:00 AM82 °FPassing clouds.17 mph84%29.89 "HgN/A
5:00 AM82 °FPassing clouds.15 mph84%29.86 "HgN/A
3:00 AM82 °FPassing clouds.14 mph84%29.89 "HgN/A
2:00 AM82 °FPassing clouds.16 mph84%29.89 "HgN/A
11:00 PM
Mon, Aug 31
84 °FPassing clouds.21 mph79%29.95 "HgN/A
10:00 PM84 °FPassing clouds.22 mph79%29.92 "HgN/A
9:00 PM48 °FPassing clouds.22 mph100%29.89 "HgN/A
8:00 PM84 °FPassing clouds.20 mph79%29.86 "HgN/A
7:00 PM84 °FPassing clouds.23 mph79%29.83 "HgN/A
5:00 PM90 °FPassing clouds.26 mph67%29.80 "HgN/A
4:00 PM90 °FScattered clouds.28 mph67%29.83 "HgN/A
3:00 PM91 °FScattered clouds.25 mph63%29.83 "HgN/A
2:00 PM91 °FScattered clouds.23 mph63%29.86 "HgN/A
1:00 PM91 °FPassing clouds.23 mph63%29.89 "HgN/A
12:00 PM91 °FPassing clouds.25 mph63%29.92 "HgN/A
Weather by CustomWeather, © 2015

See weather overviewHow to use our weather pages